Weather History for South Lake Tahoe, CA

Change the Weather History Date:

Wednesday, February 27, 2013

  Actual Average Record
Temperature  
Mean Temperature 32 °F 33 °F  
Max Temperature 49 °F 46 °F 57 °F (1992)
Min Temperature 15 °F 20 °F -11 °F (1987)
Degree Days  
Heating Degree Days 33 32  
Month to date heating degree days 922 922  
Since 1 July heating degree days 4993 5204  
Cooling Degree Days 0 0  
Month to date cooling degree days 0 0  
Year to date cooling degree days 0 0  
Moisture  
Dew Point 12 °F    
Average Humidity 44    
Maximum Humidity 69    
Minimum Humidity 18    
Precipitation  
Precipitation 0.00 in - 1.92 in (1940)
Month to date precipitation 0.19  
Year to date precipitation 0.90  
Sea Level Pressure  
Sea Level Pressure 30.34 in    
Wind  
Wind Speed 2 mph (SSE)    
Max Wind Speed 12 mph    
Max Gust Speed 16 mph    
Visibility 10 miles    
Events      
T = Trace of Precipitation, MM = Missing Value Source: NWS Daily Summary

Daily Weather History Graph

Daily Weather History Graph

Search for Another Location

Airport:

Trip Planner

Search our weather history database for the weather conditions in past years. The results will help you decide how hot, cold, wet, or windy it might be!

Date:

Astronomy

Feb. 27, 2013 Rise Set
Actual Time 6:34 AM PST 5:51 PM PST
Civil Twilight 6:07 AM PST 6:17 PM PST
Nautical Twilight 5:37 AM PST 6:48 PM PST
Astronomical Twilight 5:06 AM PST 7:19 PM PST
Moon 8:15 PM PST (2/27) 7:14 AM PST (2/27)
Length of Visible Light 12h 09m
Length of Day
11h 16m
Waning Gibbous, 96% of the Moon is Illuminated
Feb 27
Waning Gibbous
Mar 4
Last Quarter
Mar 11
New
Mar 19
First Quarter
Mar 27
Full

Hourly Weather History & Observations

Time (PST) Temp. Windchill Dew Point Humidity Pressure Visibility Wind Dir Wind Speed Gust Speed Precip Events Conditions
12:53 AM 19.9 °F - 9.0 °F 62% 30.28 in 10.0 mi Calm Calm - N/A   Clear
1:53 AM 19.9 °F - 9.0 °F 62% 30.28 in 10.0 mi Calm Calm - N/A   Clear
2:53 AM 18.0 °F 12.7 °F 9.0 °F 68% 30.29 in 10.0 mi South 3.5 mph - N/A   Clear
3:53 AM 17.1 °F 11.7 °F 8.1 °F 68% 30.31 in 10.0 mi SSW 3.5 mph - N/A   Clear
4:53 AM 17.1 °F 11.7 °F 8.1 °F 68% 30.33 in 10.0 mi SSW 3.5 mph - N/A   Clear
5:53 AM 15.1 °F 9.4 °F 7.0 °F 70% 30.38 in 10.0 mi SSW 3.5 mph - N/A   Clear
7:53 AM 18.0 °F - 9.0 °F 68% 30.42 in 10.0 mi Calm Calm - N/A   Clear
8:53 AM 28.0 °F - 9.0 °F 45% 30.38 in 10.0 mi Calm Calm - N/A   Clear
9:53 AM 37.9 °F - 6.1 °F 27% 30.34 in 10.0 mi Calm Calm - N/A   Clear
10:53 AM 45.0 °F 43.5 °F 3.9 °F 18% 30.30 in 10.0 mi NE 3.5 mph - N/A   Clear
11:53 AM 44.1 °F 39.5 °F 16.0 °F 32% 30.31 in 10.0 mi NNE 8.1 mph - N/A   Clear
12:53 PM 45.0 °F 40.1 °F 17.1 °F 33% 30.31 in 10.0 mi ENE 9.2 mph - N/A   Clear
1:53 PM 48.0 °F - 9.0 °F 21% 30.30 in 10.0 mi Calm Calm - N/A   Clear
2:53 PM 48.0 °F - 10.0 °F 22% 30.30 in 10.0 mi SSW 5.8 mph - N/A   Clear
3:53 PM 48.9 °F - 8.1 °F 19% 30.30 in 10.0 mi Variable 5.8 mph - N/A   Clear
4:53 PM 44.1 °F - 14.0 °F 30% 30.32 in 10.0 mi Calm Calm - N/A   Clear
5:53 PM 39.9 °F - 14.0 °F 35% 30.34 in 10.0 mi Calm Calm - N/A   Clear
6:53 PM 34.0 °F - 19.9 °F 56% 30.39 in 10.0 mi Calm Calm - N/A   Clear
7:53 PM 35.1 °F - 19.0 °F 52% 30.39 in 10.0 mi Calm Calm - N/A   Clear
8:53 PM 34.0 °F 31.0 °F 19.0 °F 54% 30.37 in 10.0 mi Variable 3.5 mph - N/A   Clear
9:53 PM 30.0 °F - 19.0 °F 64% 30.36 in 10.0 mi Calm Calm - N/A   Clear
10:53 PM 28.9 °F - 19.9 °F 69% 30.35 in 10.0 mi Calm Calm - N/A   Clear
11:53 PM 28.9 °F - 19.0 °F 67% 30.36 in 10.0 mi Calm Calm - N/A   Scattered Clouds